RH
37 38 40 39 36 34 33 31 28 27 26 23 19 19 26 28 25 23 24 24 24 20 20 29 32 34 33 29 30 29 25 23 22 20 18 18 15 14 16 17 18 17 17
39 40 45 41 39 38 35 32 30 30 30 26 23 25 28 30 29 28 26 19 17 17 19 20 25 31 31 27 25 21 19 19 18 18 18 16 15 16 17 17 15 17 18
41 42 45 43 40 38 36 34 33 31 29 28 36 42 39 34 26 26 22 13 13 13 13 17 19 22 21 23 22 20 20 18 17 17 16 17 17 17 17 20 18 20 18
43 42 43 44 38 37 36 36 35 32 27 28 39 43 39 37 30 23 21 18 15 13 13 14 16 16 19 19 19 17 17 16 16 16 15 15 16 15 15 14 18 18 20
45 44 44 44 40 39 37 38 38 33 28 26 33 35 35 35 34 33 28 22 16 15 14 13 13 14 14 14 16 16 17 18 18 18 18 15 13 11 12 14 19 25 23
56 48 47 49 45 40 40 40 38 35 32 30 31 33 37 38 38 38 35 31 27 25 24 23 21 19 18 17 17 17 19 18 19 20 19 19 19 18 16 16 18 20 23
48 47 47 51 47 42 41 42 43 39 35 33 35 35 40 40 39 38 37 33 31 30 31 31 31 31 32 33 34 33 33 34 34 34 33 32 31 31 29 26 24 23 26
44 43 44 48 45 45 43 44 45 44 41 36 36 38 39 42 40 39 35 31 27 28 29 29 31 33 35 37 39 40 40 41 41 40 39 38 38 37 37 36 35 33 31
45 47 43 46 46 45 43 45 46 47 45 41 38 38 40 41 42 38 34 33 30 32 35 37 39 37 37 37 37 37 39 37 35 34 35 35 35 36 37 37 41 39 37
49 50 48 49 46 49 47 45 47 47 47 46 41 38 38 40 40 42 37 34 37 39 40 41 41 43 45 43 43 41 39 38 36 35 33 32 33 34 34 37 40 40 48
50 52 56 54 52 52 50 47 48 49 49 50 46 42 38 39 40 37 36 40 42 42 42 44 44 45 44 44 43 43 40 37 36 34 34 32 32 33 34 34 36 40 43
48 51 56 58 58 55 53 49 49 49 53 53 48 45 42 40 39 39 40 43 46 45 45 45 46 46 42 43 42 41 39 36 32 31 30 30 31 32 34 36 37 36 36
48 50 54 59 61 58 55 53 51 52 55 56 52 46 45 45 45 44 45 46 48 47 47 48 48 45 44 44 41 37 34 31 30 30 29 28 26 26 27 27 26 25 26
44 50 52 55 57 60 60 57 54 56 58 58 58 54 51 50 50 50 51 49 50 50 49 49 48 46 46 42 37 32 32 31 30 27 23 20 19 20 21 22 22 22 24
37 46 49 54 55 56 58 57 57 57 62 61 62 63 58 57 56 56 54 55 53 51 50 50 49 47 39 35 33 33 31 27 23 19 17 17 18 18 19 20 20 22 24
40 37 38 41 45 48 51 55 56 57 61 65 69 70 65 64 61 57 56 56 53 52 52 51 45 35 35 34 32 28 24 21 19 18 17 18 19 19 20 22 23 24 24
41 41 40 37 37 42 47 51 54 56 59 69 74 75 71 65 63 61 57 56 54 54 53 40 37 36 35 31 27 23 21 18 17 16 17 17 18 18 18 18 18 19 19
44 40 38 39 38 37 40 47 52 54 58 66 75 76 74 69 67 65 58 57 56 54 38 36 34 36 33 27 22 20 16 15 15 16 17 18 19 19 18 17 17 16 16
45 44 41 38 37 40 40 44 49 56 58 63 74 80 77 73 70 65 59 58 52 38 37 35 31 31 26 22 19 17 16 17 17 18 21 22 22 20 19 18 17 17 17
43 44 42 39 38 38 42 45 45 56 59 66 73 78 76 75 71 64 60 54 39 39 36 33 30 26 23 20 17 17 19 19 19 21 24 21 20 21 20 19 19 19 19
39 42 44 41 40 40 40 48 45 52 57 66 71 77 76 77 69 64 57 42 41 41 39 36 31 27 24 19 19 19 20 20 20 22 22 21 21 21 21 20 20 21 21
37 40 43 42 40 40 40 44 47 49 58 63 71 77 82 73 69 61 45 44 45 43 41 38 36 32 26 21 20 21 22 23 24 25 25 23 23 22 22 22 23 24 24
33 38 43 42 42 42 43 46 53 59 63 64 67 76 74 70 65 49 46 48 47 46 45 44 41 35 28 22 21 23 23 25 25 26 26 26 25 24 24 25 26 26 26
31 38 43 43 46 44 46 48 51 56 60 62 66 73 66 65 55 47 48 51 52 52 52 51 47 40 30 25 24 24 24 26 27 26 26 26 25 24 25 26 26 25 23
33 36 41 43 46 49 49 54 57 64 65 68 68 62 63 56 47 47 52 54 54 55 54 52 49 45 34 27 25 26 27 26 26 26 26 26 26 28 27 25 24 22 19
37 40 44 45 47 50 54 56 56 58 59 64 63 57 55 49 47 50 54 55 57 58 57 54 50 44 36 30 30 29 29 28 28 28 30 31 31 28 26 23 21 19 17